Weather History for Las Vegas, NM

Change the Weather History Date:

Thursday, August 29, 2013

  Actual Average Record
Temperature  
Mean Temperature 71 °F -  
Max Temperature 88 °F 79 °F 90 °F (2011)
Min Temperature 55 °F 50 °F 42 °F (1976)
Cooling Degree Days 6    
Growing Degree Days 21 (Base 50)    
Moisture  
Dew Point 46 °F    
Average Humidity 41    
Maximum Humidity 69    
Minimum Humidity 18    
Precipitation  
Precipitation 0.00 in - - ()
Sea Level Pressure  
Sea Level Pressure 30.02 in    
Wind  
Wind Speed 8 mph (SSW)    
Max Wind Speed 16 mph    
Max Gust Speed 18 mph    
Visibility 10 miles    
Events      
Averages and records for this station are not official NWS values.
T = Trace of Precipitation, MM = Missing Value Source: NWS Daily Summary

Daily Weather History Graph

Daily Weather History Graph

Search for Another Location

Airport:

Trip Planner

Search our weather history database for the weather conditions in past years. The results will help you decide how hot, cold, wet, or windy it might be!

Date:

Astronomy

Aug. 29, 2013 Rise Set
Actual Time 6:30 AM MDT 7:31 PM MDT
Civil Twilight 6:04 AM MDT 7:57 PM MDT
Nautical Twilight 5:33 AM MDT 8:28 PM MDT
Astronomical Twilight 5:01 AM MDT 9:00 PM MDT
Moon 12:30 AM MDT (8/29) 2:56 PM MDT (8/29)
Length of Visible Light 13h 53m
Length of Day
13h 00m
Last Quarter, 37% of the Moon is Illuminated
Aug 29
Last Quarter
Sep 5
New
Sep 12
First Quarter
Sep 19
Full
Sep 26
Last Quarter

Hourly Weather History & Observations

Time (MDT) Temp. Dew Point Humidity Pressure Visibility Wind Dir Wind Speed Gust Speed Precip Events Conditions
2:53 AM 60.1 °F 46.9 °F 62% 29.99 in 10.0 mi South 10.4 mph - N/A   Unknown
3:53 AM 55.9 °F 46.0 °F 69% 30.00 in 10.0 mi South 8.1 mph - N/A   Clear
4:53 AM 55.0 °F 45.0 °F 69% 30.00 in 10.0 mi South 6.9 mph - N/A   Clear
6:53 AM 57.0 °F 44.1 °F 62% 30.34 in 10.0 mi NNW 3.5 mph - N/A   Clear
7:53 AM 66.0 °F 45.0 °F 47% 30.02 in 10.0 mi NW 3.5 mph - N/A   Clear
8:53 AM 71.1 °F 46.0 °F 41% 30.03 in 10.0 mi North 4.6 mph - N/A   Clear
9:53 AM 75.9 °F 46.0 °F 35% 30.02 in - Calm Calm - N/A   Unknown
10:53 AM 79.0 °F 45.0 °F 30% 30.01 in 10.0 mi South 5.8 mph - N/A   Clear
11:53 AM 82.0 °F 43.0 °F 25% 29.99 in 10.0 mi Variable 6.9 mph - N/A   Clear
1:53 PM 86.0 °F 39.0 °F 19% 29.96 in 10.0 mi Variable 5.8 mph - N/A   Unknown
2:53 PM 87.1 °F 39.0 °F 18% 29.95 in 10.0 mi SSW 6.9 mph - N/A   Clear
4:53 PM 84.9 °F 42.1 °F 22% 29.94 in 10.0 mi SSW 10.4 mph 18.4 mph N/A   Partly Cloudy
5:53 PM 84.9 °F 42.1 °F 22% 29.94 in 10.0 mi Calm Calm - N/A   Mostly Cloudy
6:32 PM 82.4 °F 48.2 °F 30% 30.29 in 10.0 mi SSW 16.1 mph - N/A   Scattered Clouds
6:53 PM 80.1 °F 50.0 °F 35% 29.98 in 10.0 mi SSW 16.1 mph - N/A   Clear
7:53 PM 75.9 °F 50.0 °F 40% 29.98 in 10.0 mi SSW 15.0 mph - N/A   Clear
8:53 PM 73.0 °F 48.9 °F 42% 29.98 in 10.0 mi SSW 12.7 mph - N/A   Clear
9:53 PM 70.0 °F 48.0 °F 46% 29.98 in 10.0 mi SSW 13.8 mph - N/A   Clear
10:53 PM 66.9 °F 48.0 °F 51% 29.98 in 10.0 mi SSW 12.7 mph - N/A   Clear
11:53 PM 66.0 °F 48.0 °F 52% 29.98 in 10.0 mi South 10.4 mph - N/A   Clear